Location: Saint Louis
(38.6272°N, 90.1978°W)
Time: 05:33:59
(UTC-05:00)

ISS - Pass Details

Date: 18 September 2013
Orbit: 401 x 404 km, 51.6° (Epoch: 28 July)

Event Time Altitude Azimuth Distance (km) Brightness Sun altitude
Exits shadow 04:42:17 36° 41° (NE) 674 -1.8 -24.1°
Drops below altitude 10° 04:44:25 10° 48° (NE) 1,491 0.5 -23.7°
Enters shadow 05:39:10 -71° 235° (SW) 12,502 4.1 -13.6°
